Location: La Bilong�re
(48.1297°N, 1.4584°W)
Time: 07:22:32
(UTC+00:00)

Okean 3 - Pass Details

Date: 03 March 2021
Orbit: 577 x 600 km, 82.5° (Epoch: 12 April)

Event Time Altitude Azimuth Distance (km) Brightness Sun altitude
Rises 20:12:39 0° 347° (NNW) 2,832 7.4 -23.8°
Reaches altitude 10° 20:14:52 10° 345° (NNW) 1,930 6.5 -24.1°
Maximum altitude 20:19:05 65° 264° (W) 655 3.8 -24.8°
Enters shadow 20:19:38 58° 222° (SW) 696 3.8 -24.9°
